Torna al catalogo

STARLINK-4556

AttivoComunicazioniVLEO
NORAD 53578·PAYLOAD·🇺🇸 United States

Lanciato Aug 19, 2022 da Cape Canaveral Space Force Station

Loading…

Prossimi Passaggi (prossime 24 ore)

TLE

AggiornatoSource: CelesTrak SupGP

Epoca: Sep 14, 2026, 20:52 UTC

1 53578C 22101BD  26257.86993056  .00041440  00000+0  12248-2 0  2570
2 53578  53.1572 269.8843 0001247  82.3086 126.6257 15.34358981    11

Traccia STARLINK-4556 in tempo reale con AllMySat

Download on the App Store